Flag for Spain Weather past 2 weeks in Las Palmas, Canary Islands, Spain

Now
72 °F

Passing clouds.


Feels Like: 76 °F
Forecast: 64 / 72 °F
Wind: 22 mph from Northeast

Location: Las Palmas De Gran Canaria / Gando


UV Index: 7 (High)

Visibility: N/A


Pressure: 30.15 "Hg

Humidity: 61%

Dew point: 57 °F

Location of Las PalmasLocation

Historic Weather in Las Palmas

°F

Las Palmas temperature yesterday

Maximum temperature yesterday: 73 °F (at 3:00 PM)
Minimum temperature yesterday: 63 °F (at 7:30 AM)
Average temperature yesterday: 67 °F

Past Weeks' High & Low Weather Summary

 TemperatureHumidityPressure
High86 °F (Apr 13, 3:00 PM)88% (Apr 11, 5:30 AM)30.21 "Hg (Apr 11, 5:30 AM)
Low61 °F (Apr 9, 8:00 AM)31% (Apr 13, 3:00 PM)29.89 "Hg (Apr 13, 6:30 AM)
Average68 °F72%30.02 "Hg
* Reported Apr 8 3:00 PM — Apr 23 3:30 PM, Las Palmas, Weather by CustomWeather, © 2014

Note: Actual official high and low records may vary slightly from our data, if they occured in-between our weather recording intervals... More about our weather records

Advertising

Historic Weather Conditions — Data for Previous 24 hours

 ConditionsComfort  
Time TempWeatherWind HumidityBarometerVisibility
3:30 PM
Apr 23
72 °FPassing clouds.23 mph61%30.15 "HgN/A
3:00 PM73 °FPassing clouds.22 mph53%30.18 "HgN/A
2:30 PM73 °FPassing clouds.22 mph57%30.18 "HgN/A
2:00 PM72 °FPassing clouds.22 mph61%30.18 "HgN/A
1:30 PM72 °FPassing clouds.23 mph61%30.18 "HgN/A
1:00 PM72 °FPassing clouds.22 mph57%30.21 "HgN/A
12:30 PM72 °FScattered clouds.21 mph57%30.21 "HgN/A
12:00 PM72 °FPassing clouds.18 mph57%30.21 "HgN/A
11:30 AM72 °FPassing clouds.18 mph53%30.21 "HgN/A
11:00 AM70 °FPassing clouds.21 mph60%30.21 "HgN/A
10:30 AM68 °FPassing clouds.18 mph60%30.21 "HgN/A
10:00 AM68 °FPassing clouds.17 mph60%30.21 "HgN/A
9:30 AM70 °FPassing clouds.18 mph57%30.21 "HgN/A
9:00 AM66 °FScattered clouds.14 mph64%30.18 "HgN/A
8:30 AM66 °FScattered clouds.13 mph64%30.18 "HgN/A
8:00 AM64 °FPassing clouds.12 mph68%30.18 "HgN/A
7:30 AM63 °FPassing clouds.12 mph68%30.18 "HgN/A
7:00 AM63 °FPassing clouds.12 mph68%30.15 "HgN/A
6:30 AM63 °FPassing clouds.12 mph68%30.15 "HgN/A
6:00 AM63 °FPassing clouds.10 mph68%30.15 "HgN/A
5:30 AM64 °FPassing clouds.12 mph64%30.15 "HgN/A
5:00 AM64 °FPassing clouds.12 mph68%30.15 "HgN/A
4:30 AM63 °FPassing clouds.12 mph73%30.15 "HgN/A
4:00 AM63 °FPassing clouds.12 mph68%30.15 "HgN/A
3:30 AM64 °FPassing clouds.12 mph68%30.15 "HgN/A
3:00 AM64 °FPassing clouds.12 mph64%30.18 "HgN/A
2:30 AM64 °FPassing clouds.12 mph68%30.18 "HgN/A
2:00 AM64 °FPassing clouds.12 mph68%30.18 "HgN/A
1:30 AM64 °FPassing clouds.10 mph68%30.18 "HgN/A
1:00 AM64 °FPassing clouds.10 mph68%30.18 "HgN/A
12:30 AM64 °FPassing clouds.10 mph64%30.18 "HgN/A
12:00 AM64 °FPassing clouds.10 mph64%30.18 "HgN/A
11:30 PM
Apr 22
64 °FPassing clouds.9 mph64%30.18 "HgN/A
11:00 PM64 °FPassing clouds.9 mph64%30.18 "HgN/A
10:30 PM64 °FPassing clouds.10 mph68%30.18 "HgN/A
10:00 PM66 °FPassing clouds.13 mph64%30.15 "HgN/A
9:30 PM66 °FPassing clouds.14 mph64%30.15 "HgN/A
9:00 PM66 °FPassing clouds.15 mph64%30.12 "HgN/A
8:30 PM66 °FPassing clouds.16 mph64%30.12 "HgN/A
8:00 PM68 °FPassing clouds.17 mph60%30.12 "HgN/A
7:30 PM68 °FPassing clouds.20 mph60%30.12 "HgN/A
7:00 PM70 °FPassing clouds.20 mph57%30.12 "HgN/A
6:30 PM70 °FPassing clouds.20 mph57%30.12 "HgN/A
6:00 PM72 °FPassing clouds.18 mph57%30.12 "HgN/A
5:30 PM72 °FPassing clouds.18 mph53%30.12 "HgN/A
5:00 PM72 °FPassing clouds.18 mph53%30.12 "HgN/A
Weather by CustomWeather, © 2014

See weather overview